Ruidoso, NM

3:34 PM MDT on October 23, 2017 (GMT -0600)
Sierra Blanca Regional

Weather History for KSRR - February, 2013

Change the Weather History Date:

Sunday, February 17, 2013

  Actual Average Record
Temperature  
Mean Temperature 44 °F -  
Max Temperature 59 °F 50 °F 68 °F (2016)
Min Temperature 30 °F 30 °F 15 °F (2006)
Degree Days  
Heating Degree Days 20    
Moisture  
Dew Point -2 °F    
Average Humidity 15    
Maximum Humidity 23    
Minimum Humidity 7    
Precipitation  
Precipitation 0.00 in - - ()
Sea Level Pressure  
Sea Level Pressure 29.98 in    
Wind  
Wind Speed 9 mph (WSW)    
Max Wind Speed 23 mph    
Max Gust Speed 34 mph    
Visibility 10 miles    
Events      
Averages and records for this station are not official NWS values.
T = Trace of Precipitation, MM = Missing Value Source: NWS Daily Summary

Daily Weather History Graph

Daily Weather History Graph

Search for Another Location

Airport or City:

Trip Planner

Search our weather history database for the weather conditions in past years. The results will help you decide how hot, cold, wet, or windy it might be!

Date:

Astronomy

Feb. 17, 2013 Rise Set
Actual Time 6:43 AM MST 5:48 PM MST
Civil Twilight 6:18 AM MST 6:14 PM MST
Nautical Twilight 5:49 AM MST 6:43 PM MST
Astronomical Twilight 5:20 AM MST 7:12 PM MST
Moon 11:02 AM MST (2/17) 12:24 AM MST (2/17)
Length of Visible Light 11h 55m
Length of Day
11h 05m
Waxing Crescent, 49% of the Moon is Illuminated
Feb 17
Waxing Crescent
Feb 17
First Quarter
Feb 25
Full
Mar 4
Last Quarter
Mar 11
New

Hourly Weather History & Observations

Time (MST) Temp. Windchill Dew Point Humidity Pressure Visibility Wind Dir Wind Speed Gust Speed Precip Events Conditions
12:15 AM 32.0 °F - -2.2 °F 23% 30.17 in 10.0 mi Calm Calm - N/A   Clear
12:35 AM 30.2 °F 21.9 °F -4.0 °F 23% 30.16 in 10.0 mi SSW 9.2 mph - N/A   Clear
12:55 AM 32.0 °F 25.6 °F -4.0 °F 21% 30.15 in 10.0 mi West 6.9 mph - N/A   Clear
1:15 AM 33.8 °F 29.6 °F -4.0 °F 20% 30.15 in 10.0 mi NNW 4.6 mph - N/A   Clear
1:35 AM 33.8 °F 28.6 °F -4.0 °F 20% 30.14 in 10.0 mi West 5.8 mph - N/A   Clear
1:55 AM 37.4 °F 33.8 °F -4.0 °F 17% 30.14 in 10.0 mi West 4.6 mph - N/A   Clear
2:15 AM 32.0 °F 25.6 °F -2.2 °F 23% 30.13 in 10.0 mi WSW 6.9 mph - N/A   Clear
2:35 AM 32.0 °F 24.8 °F -2.2 °F 23% 30.12 in 10.0 mi West 8.1 mph - N/A   Clear
2:55 AM 33.8 °F 27.0 °F -2.2 °F 22% 30.11 in 10.0 mi West 8.1 mph - N/A   Clear
3:15 AM 33.8 °F 29.6 °F -2.2 °F 22% 30.11 in 10.0 mi West 4.6 mph - N/A   Clear
3:35 AM 33.8 °F 27.7 °F -2.2 °F 22% 30.10 in 10.0 mi West 6.9 mph - N/A   Clear
3:55 AM 32.0 °F 23.6 °F -2.2 °F 23% 30.09 in 10.0 mi WSW 10.4 mph - N/A   Clear
4:15 AM 32.0 °F 24.2 °F -2.2 °F 23% 30.09 in 10.0 mi West 9.2 mph - N/A   Clear
4:35 AM 32.0 °F 24.8 °F -2.2 °F 23% 30.09 in 10.0 mi WSW 8.1 mph - N/A   Clear
4:55 AM 32.0 °F 26.4 °F -2.2 °F 23% 30.08 in 10.0 mi SW 5.8 mph - N/A   Clear
5:15 AM 35.6 °F 31.7 °F -4.0 °F 18% 30.08 in 10.0 mi WNW 4.6 mph - N/A   Clear
5:35 AM 35.6 °F 32.8 °F -4.0 °F 18% 30.08 in 10.0 mi NW 3.5 mph - N/A   Clear
5:55 AM 35.6 °F 29.9 °F -4.0 °F 18% 30.08 in 10.0 mi West 6.9 mph - N/A   Clear
6:15 AM 32.0 °F 26.4 °F -4.0 °F 21% 30.07 in 10.0 mi NW 5.8 mph - N/A   Clear
6:35 AM 32.0 °F 26.4 °F -2.2 °F 23% 30.07 in 10.0 mi West 5.8 mph - N/A   Clear
6:55 AM 33.8 °F - -4.0 °F 20% 30.07 in 10.0 mi Calm Calm - N/A   Clear
7:15 AM 32.0 °F 28.7 °F -2.2 °F 23% 30.07 in 10.0 mi WNW 3.5 mph - N/A   Clear
7:55 AM 41.0 °F 39.0 °F -4.0 °F 15% 30.07 in 10.0 mi NNW 3.5 mph - N/A   Clear
8:15 AM 41.0 °F 39.0 °F -4.0 °F 15% 30.07 in 10.0 mi NW 3.5 mph - N/A   Clear
8:35 AM 44.6 °F 43.1 °F -4.0 °F 13% 30.07 in 10.0 mi NNE 3.5 mph - N/A   Clear
8:55 AM 46.4 °F 44.3 °F -2.2 °F 13% 30.06 in 10.0 mi NNE 4.6 mph - N/A   Clear
9:15 AM 46.4 °F 43.5 °F -0.4 °F 14% 30.05 in 10.0 mi NE 5.8 mph - N/A   Clear
9:35 AM 48.2 °F - -0.4 °F 13% 30.05 in 10.0 mi ENE 5.8 mph - N/A   Clear
9:55 AM 50.0 °F - -0.4 °F 13% 30.04 in 10.0 mi NNE 8.1 mph - N/A   Clear
10:15 AM 51.8 °F - -2.2 °F 11% 30.03 in 10.0 mi NNE 8.1 mph - N/A   Clear
10:35 AM 55.4 °F - -4.0 °F 9% 30.01 in 10.0 mi North 8.1 mph - N/A   Clear
10:55 AM 55.4 °F - -5.8 °F 8% 30.01 in 10.0 mi NE 4.6 mph 16.1 mph N/A   Clear
11:15 AM 55.4 °F - -5.8 °F 8% 30.00 in 10.0 mi North 10.4 mph - N/A   Clear
11:55 AM 55.4 °F - -4.0 °F 9% 29.98 in 10.0 mi NW 4.6 mph - N/A   Clear
12:15 PM 59.0 °F - -4.0 °F 8% 29.97 in 10.0 mi SW 11.5 mph 20.7 mph N/A   Clear
12:35 PM 57.2 °F - -4.0 °F 8% 29.94 in 10.0 mi SW 23.0 mph 28.8 mph N/A   Clear
12:55 PM 57.2 °F - -4.0 °F 8% 29.93 in 10.0 mi SW 23.0 mph 29.9 mph N/A   Clear
1:15 PM 57.2 °F - -4.0 °F 8% 29.92 in 10.0 mi SSW 20.7 mph 31.1 mph N/A   Clear
1:35 PM 57.2 °F - -7.6 °F 7% 29.91 in 10.0 mi SW 19.6 mph 23.0 mph N/A   Clear
1:55 PM 57.2 °F - -5.8 °F 8% 29.90 in 10.0 mi SSW 15.0 mph 23.0 mph N/A   Clear
2:15 PM 57.2 °F - -4.0 °F 8% 29.90 in 10.0 mi SW 19.6 mph 28.8 mph N/A   Clear
2:35 PM 57.2 °F - -4.0 °F 8% 29.89 in 10.0 mi WSW 23.0 mph - N/A   Clear
2:55 PM 55.4 °F - -2.2 °F 9% 29.89 in 10.0 mi SW 20.7 mph 28.8 mph N/A   Clear
3:15 PM 53.6 °F - -2.2 °F 10% 29.89 in 10.0 mi SW 16.1 mph 28.8 mph N/A   Clear
3:35 PM 53.6 °F - -2.2 °F 10% 29.89 in 10.0 mi SW 23.0 mph 29.9 mph N/A   Clear
3:55 PM 53.6 °F - -2.2 °F 10% 29.88 in 10.0 mi SW 20.7 mph 26.5 mph N/A   Clear
4:15 PM 51.8 °F - -2.2 °F 11% 29.88 in 10.0 mi SW 23.0 mph 26.5 mph N/A   Clear
4:35 PM 50.0 °F - -0.4 °F 13% 29.88 in 10.0 mi SW 17.3 mph 25.3 mph N/A   Clear
4:55 PM 50.0 °F - -0.4 °F 13% 29.87 in 10.0 mi SW 17.3 mph 23.0 mph N/A   Clear
5:15 PM 48.2 °F - -0.4 °F 13% 29.87 in 10.0 mi SW 13.8 mph 21.9 mph N/A   Clear
5:35 PM 48.2 °F - -0.4 °F 13% 29.86 in 10.0 mi SW 17.3 mph 26.5 mph N/A   Clear
5:55 PM 46.4 °F 39.0 °F -0.4 °F 14% 29.86 in 10.0 mi SW 19.6 mph 24.2 mph N/A   Clear
6:15 PM 46.4 °F 39.2 °F -0.4 °F 14% 29.86 in 10.0 mi SW 18.4 mph 26.5 mph N/A   Clear
6:35 PM 44.6 °F 38.4 °F -0.4 °F 15% 29.87 in 10.0 mi SSW 12.7 mph - N/A   Clear
6:55 PM 44.6 °F 40.2 °F -0.4 °F 15% 29.87 in 10.0 mi SSW 8.1 mph - N/A   Clear
7:15 PM 44.6 °F 40.2 °F -0.4 °F 15% 29.87 in 10.0 mi SW 8.1 mph - N/A   Clear
7:35 PM 44.6 °F 39.2 °F -0.4 °F 15% 29.86 in 10.0 mi SW 10.4 mph - N/A   Clear
7:55 PM 46.4 °F 39.0 °F -0.4 °F 14% 29.86 in 10.0 mi SW 19.6 mph 27.6 mph N/A   Clear
8:15 PM 46.4 °F 38.5 °F -0.4 °F 14% 29.85 in 10.0 mi SW 21.9 mph 31.1 mph N/A   Clear
8:35 PM 46.4 °F 38.5 °F 1.4 °F 16% 29.86 in 10.0 mi WSW 21.9 mph 29.9 mph N/A   Clear
8:55 PM 46.4 °F 38.5 °F 1.4 °F 16% 29.86 in 10.0 mi WSW 21.9 mph 34.5 mph N/A   Clear
9:15 PM 46.4 °F 39.5 °F 1.4 °F 16% 29.86 in 10.0 mi WSW 17.3 mph 23.0 mph N/A   Clear
9:35 PM 46.4 °F 39.8 °F 1.4 °F 16% 29.86 in 10.0 mi WSW 16.1 mph 23.0 mph N/A   Clear
9:55 PM 44.6 °F 38.4 °F 1.4 °F 17% 29.87 in 10.0 mi WSW 12.7 mph - N/A   Clear
10:15 PM 44.6 °F 38.8 °F 1.4 °F 17% 29.87 in 10.0 mi SW 11.5 mph 18.4 mph N/A   Clear
10:35 PM 44.6 °F 37.2 °F -0.4 °F 15% 29.87 in 10.0 mi West 17.3 mph 28.8 mph N/A   Clear
10:55 PM 46.4 °F 39.5 °F -2.2 °F 13% 29.87 in 10.0 mi WSW 17.3 mph 26.5 mph N/A   Clear
11:15 PM 44.6 °F 38.8 °F -2.2 °F 14% 29.87 in 10.0 mi West 11.5 mph 24.2 mph N/A   Clear
11:35 PM 44.6 °F 36.6 °F -0.4 °F 15% 29.87 in 10.0 mi West 19.6 mph 28.8 mph N/A   Clear
11:55 PM 44.6 °F 37.2 °F -0.4 °F 15% 29.88 in 10.0 mi West 17.3 mph 31.1 mph N/A   Clear